When you browse on this site, cookies collect data to enhance your experience and personalize the content and advertising you see.
Visit our Privacy Policy to learn more. By continuing to use the site, you agree to this use of cookies and data.
  • In Hungary
  • List of Countries
  • For 7 days
  • Water Temperature
  • Weather Map
  • News
  • Weather Widgets
  • user-avatar
    Login

    Hourly Weather Czarnakowizna

    Today, 6 December, Friday

    Time Temperature Precipitation Wind Pressure Humidity
    00:00 -4°C° 0 mm 5 mps 742 mmHg 74%
    01:00 -4°C° 0 mm 5 mps 742 mmHg 76%
    02:00 -4°C° 0 mm 5 mps 741 mmHg 78%
    03:00 -4°C° 0 mm 6 mps 741 mmHg 77%
    04:00 -4°C° 0 mm 6 mps 740 mmHg 77%
    05:00 -4°C° 0 mm 6 mps 740 mmHg 76%
    06:00 -4°C° 0 mm 7 mps 739 mmHg 75%
    07:00 -4°C° 0 mm 7 mps 739 mmHg 73%
    08:00 -4°C° 0 mm 7 mps 739 mmHg 71%
    09:00 -5°C° 0 mm 8 mps 738 mmHg 67%
    10:00 -4°C° 0 mm 8 mps 738 mmHg 62%
    11:00 -2°C° 0 mm 8 mps 737 mmHg 58%
    12:00 -2°C° 0 mm 8 mps 738 mmHg 56%
    13:00 -1°C° 0 mm 8 mps 738 mmHg 55%
    14:00 -1°C° 0 mm 8 mps 738 mmHg 53%
    15:00 -1°C° 0.1 mm 7 mps 737 mmHg 55%
    16:00 -1°C° 0.1 mm 7 mps 737 mmHg 56%
    17:00 -1°C° 0.1 mm 6 mps 737 mmHg 58%
    18:00 -1°C° 0.1 mm 6 mps 737 mmHg 61%
    19:00 -1°C° 0.1 mm 6 mps 737 mmHg 64%
    20:00 -2°C° 0.1 mm 6 mps 737 mmHg 68%
    21:00 -2°C° 0.1 mm 6 mps 737 mmHg 67%
    22:00 -2°C° 0.1 mm 6 mps 737 mmHg 67%
    23:00 -2°C° 0.1 mm 6 mps 736 mmHg 66%

    Tomorrow, 7 December, Saturday

    Time Temperature Precipitation Wind Pressure Humidity
    00:00 -2°C° 0.2 mm 6 mps 736 mmHg 71%
    01:00 -2°C° 0.2 mm 6 mps 736 mmHg 75%
    02:00 -3°C° 0.2 mm 6 mps 736 mmHg 79%
    03:00 -2°C° 0.1 mm 6 mps 735 mmHg 75%
    04:00 -2°C° 0.1 mm 6 mps 735 mmHg 71%
    05:00 -2°C° 0.1 mm 6 mps 734 mmHg 67%
    06:00 -2°C° 0.1 mm 6 mps 734 mmHg 67%
    07:00 -3°C° 0.1 mm 6 mps 733 mmHg 68%
    08:00 -3°C° 0.1 mm 6 mps 733 mmHg 68%
    09:00 -2°C° 0 mm 7 mps 733 mmHg 69%
    10:00 -2°C° 0 mm 7 mps 733 mmHg 69%
    11:00 -1°C° 0 mm 7 mps 732 mmHg 70%
    12:00 -1°C° 0.1 mm 7 mps 732 mmHg 75%
    13:00 -1°C° 0.1 mm 7 mps 732 mmHg 79%
    14:00 -1°C° 0.1 mm 7 mps 731 mmHg 83%
    15:00 0°C° 0.2 mm 7 mps 731 mmHg 86%
    16:00 0°C° 0.2 mm 7 mps 731 mmHg 89%
    17:00 +2°C° 0.2 mm 7 mps 730 mmHg 91%
    18:00 +2°C° 0.8 mm 6 mps 731 mmHg 92%
    19:00 +2°C° 0.8 mm 6 mps 731 mmHg 93%
    20:00 +2°C° 0.8 mm 6 mps 731 mmHg 94%
    21:00 +2°C° 0.2 mm 6 mps 731 mmHg 91%
    22:00 +2°C° 0.2 mm 6 mps 731 mmHg 87%
    23:00 +1°C° 0.2 mm 5 mps 731 mmHg 84%

    Day after tomorrow, 8 December, Sunday

    Time Temperature Precipitation Wind Pressure Humidity
    00:00 +1°C° 0 mm 6 mps 732 mmHg 84%
    01:00 +1°C° 0 mm 6 mps 732 mmHg 84%
    02:00 -1°C° 0 mm 6 mps 733 mmHg 84%
    03:00 -1°C° 0.1 mm 6 mps 733 mmHg 84%
    04:00 -1°C° 0.1 mm 6 mps 733 mmHg 84%
    05:00 -1°C° 0.1 mm 6 mps 733 mmHg 84%
    06:00 -1°C° 0 mm 6 mps 734 mmHg 87%
    07:00 -1°C° 0 mm 6 mps 734 mmHg 90%
    08:00 -2°C° 0 mm 6 mps 735 mmHg 92%
    09:00 0°C° 0 mm 5 mps 735 mmHg 91%
    10:00 0°C° 0 mm 5 mps 735 mmHg 90%
    11:00 +1°C° 0 mm 5 mps 735 mmHg 89%
    12:00 +1°C° 0.1 mm 5 mps 734 mmHg 89%
    13:00 +2°C° 0.1 mm 6 mps 734 mmHg 89%
    14:00 +2°C° 0.1 mm 6 mps 734 mmHg 89%
    15:00 +2°C° 0 mm 6 mps 733 mmHg 88%
    16:00 +3°C° 0 mm 6 mps 733 mmHg 86%
    17:00 +3°C° 0 mm 6 mps 732 mmHg 85%
    18:00 +3°C° 0 mm 7 mps 732 mmHg 83%
    19:00 +3°C° 0 mm 7 mps 732 mmHg 82%
    20:00 +3°C° 0 mm 7 mps 731 mmHg 80%
    21:00 +2°C° 0.1 mm 8 mps 731 mmHg 81%
    22:00 +2°C° 0.1 mm 8 mps 730 mmHg 82%
    23:00 +2°C° 0.1 mm 8 mps 730 mmHg 82%

    9 December, Monday

    Time Temperature Precipitation Wind Pressure Humidity
    00:00 +2°C° 0.3 mm 8 mps 729 mmHg 84%
    01:00 +2°C° 0.3 mm 8 mps 729 mmHg 87%
    02:00 +4°C° 0.3 mm 7 mps 728 mmHg 89%
    03:00 +4°C° 0.1 mm 7 mps 728 mmHg 88%
    04:00 +4°C° 0.1 mm 7 mps 728 mmHg 87%
    05:00 +5°C° 0.1 mm 7 mps 728 mmHg 86%
    06:00 +5°C° 0 mm 6 mps 728 mmHg 87%
    07:00 +4°C° 0 mm 6 mps 728 mmHg 89%
    08:00 +5°C° 0 mm 5 mps 728 mmHg 90%
    09:00 +5°C° 0 mm 5 mps 729 mmHg 88%
    10:00 +5°C° 0 mm 5 mps 729 mmHg 85%
    11:00 +5°C° 0 mm 5 mps 729 mmHg 83%
    12:00 +5°C° 0.1 mm 5 mps 729 mmHg 82%
    13:00 +5°C° 0.1 mm 5 mps 729 mmHg 81%
    14:00 +5°C° 0.1 mm 4 mps 729 mmHg 80%
    15:00 +4°C° 0 mm 4 mps 729 mmHg 83%
    16:00 +3°C° 0 mm 3 mps 729 mmHg 87%
    17:00 +3°C° 0 mm 3 mps 730 mmHg 90%
    18:00 +2°C° 0 mm 3 mps 730 mmHg 90%
    19:00 +2°C° 0 mm 3 mps 730 mmHg 91%
    20:00 +2°C° 0 mm 3 mps 730 mmHg 91%
    21:00 +1°C° 0 mm 3 mps 730 mmHg 92%
    22:00 +1°C° 0 mm 3 mps 730 mmHg 92%
    23:00 +1°C° 0 mm 3 mps 730 mmHg 93%

    10 December, Tuesday

    Time Temperature Precipitation Wind Pressure Humidity
    00:00 +1°C° 0 mm 3 mps 730 mmHg 93%
    01:00 +1°C° 0 mm 3 mps 730 mmHg 93%
    02:00 +1°C° 0 mm 3 mps 730 mmHg 93%
    03:00 +1°C° 0 mm 3 mps 730 mmHg 94%
    04:00 +1°C° 0 mm 3 mps 730 mmHg 94%
    05:00 0°C° 0 mm 3 mps 730 mmHg 94%
    06:00 0°C° 0 mm 3 mps 731 mmHg 94%
    07:00 +1°C° 0 mm 2 mps 731 mmHg 94%
    08:00 -1°C° 0 mm 2 mps 731 mmHg 94%
    09:00 0°C° 0 mm 3 mps 731 mmHg 93%
    10:00 0°C° 0 mm 3 mps 732 mmHg 91%
    11:00 +1°C° 0 mm 3 mps 732 mmHg 89%
    12:00 +1°C° 0 mm 3 mps 732 mmHg 90%
    13:00 +1°C° 0 mm 3 mps 732 mmHg 91%
    14:00 +2°C° 0 mm 2 mps 732 mmHg 91%
    15:00 +2°C° 0 mm 2 mps 732 mmHg 92%
    16:00 +2°C° 0 mm 2 mps 733 mmHg 93%
    17:00 +2°C° 0 mm 2 mps 733 mmHg 94%
    18:00 +2°C° 0 mm 2 mps 734 mmHg 94%
    19:00 +1°C° 0 mm 3 mps 735 mmHg 95%
    20:00 +1°C° 0 mm 3 mps 736 mmHg 95%
    21:00 0°C° 0.1 mm 4 mps 737 mmHg 93%
    22:00 -1°C° 0.1 mm 5 mps 737 mmHg 92%
    23:00 -2°C° 0.1 mm 6 mps 738 mmHg 90%

    11 December, Wednesday

    Time Temperature Precipitation Wind Pressure Humidity
    00:00 -2°C° 0 mm 5 mps 739 mmHg 86%
    01:00 -2°C° 0 mm 4 mps 740 mmHg 81%
    02:00 -3°C° 0 mm 4 mps 740 mmHg 77%
    03:00 -4°C° 0 mm 3 mps 741 mmHg 78%
    04:00 -4°C° 0 mm 3 mps 742 mmHg 79%
    05:00 -3°C° 0 mm 2 mps 742 mmHg 80%
    06:00 -3°C° 0 mm 2 mps 743 mmHg 79%
    07:00 -1°C° 0 mm 1 mps 743 mmHg 77%
    08:00 -1°C° 0 mm 1 mps 743 mmHg 75%
    09:00 -1°C° 0 mm 1 mps 743 mmHg 72%
    10:00 -2°C° 0 mm 2 mps 743 mmHg 68%
    11:00 -1°C° 0 mm 2 mps 744 mmHg 65%
    12:00 -1°C° 0 mm 3 mps 743 mmHg 62%
    13:00 -2°C° 0 mm 4 mps 743 mmHg 60%
    14:00 -2°C° 0 mm 4 mps 742 mmHg 57%
    15:00 -2°C° 0 mm 4 mps 742 mmHg 60%
    16:00 -2°C° 0 mm 5 mps 742 mmHg 62%
    17:00 -4°C° 0 mm 5 mps 741 mmHg 64%
    18:00 -4°C° 0 mm 5 mps 741 mmHg 68%
    19:00 -4°C° 0 mm 5 mps 741 mmHg 72%
    20:00 -4°C° 0 mm 5 mps 741 mmHg 76%
    21:00 -4°C° 0 mm 6 mps 740 mmHg 77%
    22:00 -4°C° 0 mm 6 mps 740 mmHg 77%
    23:00 -4°C° 0 mm 6 mps 740 mmHg 78%
    Show more